Location: Tel Aviv
(32.0670°N, 34.7670°E)
Time: 03:40:36
(UTC+03:00)

Tiros 1 - Pass Details

Date: 26 January 2022
Orbit: 629 x 663 km, 48.4° (Epoch: 26 May)

Event Time Altitude Azimuth Distance (km) Brightness Sun altitude
Rises 04:36:55 0° 310° (NW) 2,972 - -25.7°
Reaches altitude 10° 04:39:16 10° 311° (NW) 2,054 - -25.2°
Exits shadow 04:43:48 82° 329° (NNW) 655 7.0 -24.2°
Maximum altitude 04:44:01 87° 38° (NE) 649 7.0 -24.2°
Drops below altitude 10° 04:48:41 10° 130° (SE) 2,023 10.5 -23.2°
Sets 04:51:00 0° 131° (SE) 2,923 11.4 -22.7°
